New Delhi, India

3:28 PM IST on July 22, 2017 (GMT +0530)
Indira Gandhi International

Weather History for VIDP - November, 2012

Change the Weather History Date:

Wednesday, November 7, 2012

  Actual Average Record
Temperature  
Mean Temperature 71 °F -  
Max Temperature 82 °F 77 °F 93 °F (2000)
Min Temperature 60 °F 54 °F 57 °F (2004)
Cooling Degree Days 6    
Growing Degree Days 21 (Base 50)    
Moisture  
Dew Point 57 °F    
Average Humidity 69    
Maximum Humidity 94    
Minimum Humidity 32    
Precipitation  
Precipitation 0.00 in - - ()
Sea Level Pressure  
Sea Level Pressure 29.90 in    
Wind  
Wind Speed 1 mph ()    
Max Wind Speed 6 mph    
Max Gust Speed -    
Visibility 0.4 miles    
Events Fog    
Averages and records for this station are not official NWS values.
T = Trace of Precipitation, MM = Missing Value Source: Averaged Metar Reports

Daily Weather History Graph

Daily Weather History Graph

Search for Another Location

Airport or City:

Trip Planner

Search our weather history database for the weather conditions in past years. The results will help you decide how hot, cold, wet, or windy it might be!

Date:

Astronomy

Nov. 07, 2012 Rise Set
Actual Time 6:37 AM IST 5:32 PM IST
Civil Twilight 6:13 AM IST 5:56 PM IST
Nautical Twilight 5:45 AM IST 6:24 PM IST
Astronomical Twilight 5:17 AM IST 6:52 PM IST
Moon No Moon Rise 12:53 PM IST (11/7)
Length of Visible Light 11h 43m
Length of Day
10h 54m
Waning Gibbous, 47% of the Moon is Illuminated
Nov 7
Waning Gibbous
Nov 14
New
Nov 20
First Quarter
Nov 28
Full
Dec 6
Last Quarter

Hourly Weather History & Observations

Time (IST) Temp. Heat Index Dew Point Humidity Pressure Visibility Wind Dir Wind Speed Gust Speed Precip Events Conditions
12:00 AM 64.4 °F - 60.8 °F 88% 29.95 in 0.2 mi Calm Calm - N/A Fog Fog
12:30 AM 64.4 °F - 60.8 °F 88% 29.95 in 0.2 mi Calm Calm - N/A Fog Fog
1:00 AM 62.6 °F - 60.8 °F 94% 29.92 in 0.2 mi Calm Calm - N/A Fog Fog
1:30 AM 62.6 °F - 59.0 °F 88% 29.92 in 0.2 mi Calm Calm - N/A Fog Fog
2:00 AM 60.8 °F - 59.0 °F 94% 29.92 in 0.1 mi Calm Calm - N/A Fog Fog
2:30 AM 60.8 °F - 59.0 °F 94% 29.92 in 0.1 mi Calm Calm - N/A Fog Fog
3:00 AM 60.8 °F - 59.0 °F 94% 29.92 in 0.2 mi Calm Calm - N/A Fog Fog
3:30 AM 60.8 °F - 59.0 °F 94% 29.92 in 0.2 mi Calm Calm - N/A Fog Fog
4:00 AM 60.8 °F - 59.0 °F 94% 29.92 in 0.2 mi Calm Calm - N/A Fog Fog
4:30 AM 60.8 °F - 59.0 °F 94% 29.92 in 0.2 mi Calm Calm - N/A Fog Fog
5:00 AM 60.8 °F - 59.0 °F 94% 29.92 in 0.2 mi WSW 2.3 mph - N/A Fog Fog
5:30 AM 60.8 °F - 57.2 °F 88% 29.92 in 0.2 mi Calm Calm - N/A Fog Fog
6:00 AM 60.8 °F - 57.2 °F 88% 29.92 in 0.3 mi Calm Calm - N/A Fog Fog
6:30 AM 60.8 °F - 57.2 °F 88% 29.92 in 0.3 mi Calm Calm - N/A Fog Fog
7:00 AM 60.8 °F - 57.2 °F 88% 29.95 in 0.3 mi Calm Calm - N/A Fog Fog
7:30 AM 60.8 °F - 57.2 °F 88% 29.95 in 0.2 mi WNW 3.5 mph - N/A Fog Fog
8:00 AM 60.8 °F - 57.2 °F 88% 29.95 in 0.2 mi Calm Calm - N/A Fog Fog
8:30 AM 62.6 °F - 57.2 °F 82% 29.98 in 0.2 mi WSW 3.5 mph - N/A Fog Fog
9:00 AM 64.4 °F - 57.2 °F 77% 29.98 in 0.3 mi Calm Calm - N/A Fog Fog
9:30 AM 66.2 °F - 55.4 °F 68% 29.98 in 0.4 mi SSW 2.3 mph - N/A   Smoke
10:00 AM 69.8 °F - 53.6 °F 56% 29.98 in 0.4 mi Calm Calm - N/A   Smoke
11:00 AM 75.2 °F - 53.6 °F 47% 29.95 in 0.5 mi West 3.5 mph - N/A   Smoke
11:30 AM 77.0 °F - 53.6 °F 44% 29.95 in 0.5 mi West 4.6 mph - N/A   Smoke
12:00 PM 78.8 °F - 53.6 °F 42% 29.92 in 0.5 mi West 4.6 mph - N/A   Smoke
12:30 PM 80.6 °F - 51.8 °F 37% 29.92 in 0.6 mi West 4.6 mph - N/A   Smoke
1:00 PM 80.6 °F - 51.8 °F 37% 29.89 in 0.6 mi West 4.6 mph - N/A   Smoke
1:30 PM 82.4 °F - 51.8 °F 35% 29.89 in 0.7 mi West 4.6 mph - N/A   Smoke
2:00 PM 82.4 °F - 51.8 °F 35% 29.86 in 0.7 mi WNW 5.8 mph - N/A   Smoke
2:30 PM 82.4 °F - 50.0 °F 32% 29.86 in 0.7 mi WNW 5.8 mph - N/A   Smoke
3:00 PM 82.4 °F - 50.0 °F 32% 29.86 in 0.7 mi NW 5.8 mph - N/A   Smoke
3:30 PM 82.4 °F - 50.0 °F 32% 29.86 in 0.7 mi NW 4.6 mph - N/A   Smoke
4:00 PM 80.6 °F 80.5 °F 55.4 °F 42% 29.83 in 0.6 mi North 4.6 mph - N/A   Smoke
5:00 PM 78.8 °F - 55.4 °F 44% 29.83 in 0.4 mi NNW 4.6 mph - N/A   Smoke
5:30 PM 78.8 °F - 55.4 °F 44% 29.83 in 0.4 mi NW 3.5 mph - N/A   Smoke
6:00 PM 77.0 °F - 57.2 °F 50% 29.86 in 0.4 mi NE 3.5 mph - N/A   Smoke
6:30 PM 73.4 °F - 59.0 °F 61% 29.86 in 0.4 mi Calm Calm - N/A   Smoke
7:00 PM 71.6 °F - 59.0 °F 64% 29.86 in 0.4 mi Calm Calm - N/A   Smoke
7:30 PM 69.8 °F - 57.2 °F 64% 29.86 in 0.4 mi Calm Calm - N/A   Smoke
8:00 PM 69.8 °F - 59.0 °F 68% 29.86 in 0.4 mi Calm Calm - N/A   Smoke
8:30 PM 66.2 °F - 59.0 °F 78% 29.86 in 0.3 mi Calm Calm - N/A Fog Fog
9:00 PM 66.2 °F - 59.0 °F 78% 29.86 in 0.3 mi Calm Calm - N/A Fog Fog
9:30 PM 66.2 °F - 59.0 °F 78% 29.89 in 0.2 mi Calm Calm - N/A Fog Fog
10:00 PM 66.2 °F - 59.0 °F 78% 29.86 in 0.2 mi Calm Calm - N/A Fog Fog
10:30 PM 66.2 °F - 59.0 °F 78% 29.86 in 0.2 mi Calm Calm - N/A Fog Fog
11:00 PM 64.4 °F - 59.0 °F 83% 29.86 in 0.2 mi Calm Calm - N/A Fog Fog